Time,TemperatureF,DewpointF,PressureIn,WindDirection,WindDirectionDegrees,WindSpeedMPH,WindSpeedGustMPH,Humidity,HourlyPrecipIn,Conditions,Clouds,dailyrainin,SoftwareType,DateUTC
2013-07-04 00:04:00,69.9,58.0,30.14,SE,135,2.0,6.0,66,0.00,,,0.00,Weather View 32 v70,2013-07-04 05:04:00,
2013-07-04 00:09:00,69.7,57.8,30.14,ESE,112,1.0,6.0,66,0.00,,,0.00,Weather View 32 v70,2013-07-04 05:09:00,
2013-07-04 00:14:00,69.5,57.6,30.14,ESE,112,4.0,6.0,66,0.00,,,0.00,Weather View 32 v70,2013-07-04 05:14:00,
2013-07-04 00:19:00,69.4,57.9,30.13,ESE,112,3.0,6.0,67,0.00,,,0.00,Weather View 32 v70,2013-07-04 05:19:00,
2013-07-04 00:24:00,69.2,57.7,30.13,ESE,112,4.0,6.0,67,0.00,,,0.00,Weather View 32 v70,2013-07-04 05:24:00,
2013-07-04 00:29:00,69.1,58.1,30.13,SE,135,5.0,7.0,68,0.00,,,0.00,Weather View 32 v70,2013-07-04 05:29:00,
2013-07-04 00:34:00,69.0,58.0,30.13,ESE,112,2.0,7.0,68,0.00,,,0.00,Weather View 32 v70,2013-07-04 05:34:00,
2013-07-04 00:39:00,68.9,57.9,30.13,SE,135,4.0,7.0,68,0.00,,,0.00,Weather View 32 v70,2013-07-04 05:39:00,
2013-07-04 00:44:00,68.8,57.8,30.13,ESE,112,5.0,7.0,68,0.00,,,0.00,Weather View 32 v70,2013-07-04 05:44:00,
2013-07-04 00:49:00,68.7,57.7,30.13,SE,135,3.0,7.0,68,0.00,,,0.00,Weather View 32 v70,2013-07-04 05:49:00,
2013-07-04 00:54:00,68.7,57.7,30.13,SE,135,4.0,7.0,68,0.00,,,0.00,Weather View 32 v70,2013-07-04 05:54:00,
2013-07-04 00:59:00,68.6,57.6,30.13,SE,135,3.0,7.0,68,0.00,,,0.00,Weather View 32 v70,2013-07-04 05:59:00,
2013-07-04 01:04:00,68.6,57.2,30.13,ESE,112,5.0,7.0,67,0.00,,,0.00,Weather View 32 v70,2013-07-04 06:04:00,
2013-07-04 01:09:00,68.6,56.8,30.13,SE,135,6.0,9.0,66,0.00,,,0.00,Weather View 32 v70,2013-07-04 06:09:00,
2013-07-04 01:14:00,68.6,56.3,30.13,SE,135,3.0,9.0,65,0.00,,,0.00,Weather View 32 v70,2013-07-04 06:14:00,
2013-07-04 01:19:00,68.6,55.9,30.13,ESE,112,4.0,9.0,64,0.00,,,0.00,Weather View 32 v70,2013-07-04 06:19:00,
2013-07-04 01:24:00,68.5,55.8,30.13,SE,135,4.0,9.0,64,0.00,,,0.00,Weather View 32 v70,2013-07-04 06:24:00,
2013-07-04 01:29:00,68.4,55.3,30.13,ESE,112,5.0,9.0,63,0.00,,,0.00,Weather View 32 v70,2013-07-04 06:29:00,
2013-07-04 01:34:00,68.4,55.7,30.13,East,90,4.0,9.0,64,0.00,,,0.00,Weather View 32 v70,2013-07-04 06:34:00,
2013-07-04 01:39:00,68.3,55.6,30.13,SE,135,2.0,9.0,64,0.00,,,0.00,Weather View 32 v70,2013-07-04 06:39:00,
2013-07-04 01:44:00,68.1,55.9,30.13,SE,135,3.0,9.0,65,0.00,,,0.00,Weather View 32 v70,2013-07-04 06:44:00,
2013-07-04 01:49:00,67.8,56.0,30.13,SE,135,4.0,9.0,66,0.00,,,0.00,Weather View 32 v70,2013-07-04 06:49:00,
2013-07-04 01:55:00,67.6,55.8,30.13,SE,135,3.0,9.0,66,0.00,,,0.00,Weather View 32 v70,2013-07-04 06:55:00,
2013-07-04 02:00:00,67.5,56.1,30.12,ESE,112,4.0,9.0,67,0.00,,,0.00,Weather View 32 v70,2013-07-04 07:00:00,
2013-07-04 02:05:00,67.5,55.7,30.12,SE,135,4.0,9.0,66,0.00,,,0.00,Weather View 32 v70,2013-07-04 07:05:00,
2013-07-04 02:10:00,67.4,55.6,30.12,SE,135,3.0,8.0,66,0.00,,,0.00,Weather View 32 v70,2013-07-04 07:10:00,
2013-07-04 02:15:00,67.2,55.8,30.12,SE,135,3.0,8.0,67,0.00,,,0.00,Weather View 32 v70,2013-07-04 07:15:00,
2013-07-04 02:20:00,66.9,56.0,30.12,SE,135,3.0,8.0,68,0.00,,,0.00,Weather View 32 v70,2013-07-04 07:20:00,
2013-07-04 02:25:00,66.9,56.0,30.12,SE,135,5.0,8.0,68,0.00,,,0.00,Weather View 32 v70,2013-07-04 07:25:00,
2013-07-04 02:30:00,66.8,55.9,30.12,SE,135,3.0,8.0,68,0.00,,,0.00,Weather View 32 v70,2013-07-04 07:30:00,
2013-07-04 02:35:00,66.7,55.8,30.12,SE,135,2.0,8.0,68,0.00,,,0.00,Weather View 32 v70,2013-07-04 07:35:00,
2013-07-04 02:40:00,66.6,56.1,30.12,ESE,112,4.0,7.0,69,0.00,,,0.00,Weather View 32 v70,2013-07-04 07:40:00,
2013-07-04 02:45:00,66.3,55.8,30.12,ESE,112,4.0,7.0,69,0.00,,,0.00,Weather View 32 v70,2013-07-04 07:45:00,
2013-07-04 02:50:00,66.2,55.7,30.12,ESE,112,7.0,7.0,69,0.00,,,0.00,Weather View 32 v70,2013-07-04 07:50:00,
2013-07-04 02:55:00,66.2,55.7,30.12,ESE,112,4.0,7.0,69,0.00,,,0.00,Weather View 32 v70,2013-07-04 07:55:00,
2013-07-04 03:00:00,66.3,55.4,30.12,ESE,112,5.0,8.0,68,0.00,,,0.00,Weather View 32 v70,2013-07-04 08:00:00,
2013-07-04 03:05:00,66.3,55.4,30.12,ESE,112,4.0,8.0,68,0.00,,,0.00,Weather View 32 v70,2013-07-04 08:05:00,
2013-07-04 03:10:00,66.2,55.3,30.12,ESE,112,5.0,8.0,68,0.00,,,0.00,Weather View 32 v70,2013-07-04 08:10:00,
2013-07-04 03:15:00,66.0,55.5,30.12,SE,135,4.0,8.0,69,0.00,,,0.00,Weather View 32 v70,2013-07-04 08:15:00,
2013-07-04 03:20:00,66.1,55.2,30.12,SE,135,4.0,8.0,68,0.00,,,0.00,Weather View 32 v70,2013-07-04 08:20:00,
2013-07-04 03:25:00,66.0,55.5,30.12,ESE,112,6.0,9.0,69,0.00,,,0.00,Weather View 32 v70,2013-07-04 08:25:00,
2013-07-04 03:30:00,66.2,55.7,30.12,ESE,112,3.0,9.0,69,0.00,,,0.00,Weather View 32 v70,2013-07-04 08:30:00,
2013-07-04 03:35:00,66.1,55.6,30.12,SE,135,2.0,9.0,69,0.00,,,0.00,Weather View 32 v70,2013-07-04 08:35:00,
2013-07-04 03:40:00,65.9,55.8,30.12,SE,135,5.0,9.0,70,0.00,,,0.00,Weather View 32 v70,2013-07-04 08:40:00,
2013-07-04 03:45:00,65.9,55.8,30.12,SE,135,2.0,9.0,70,0.00,,,0.00,Weather View 32 v70,2013-07-04 08:45:00,
2013-07-04 03:50:00,65.7,56.0,30.12,SE,135,3.0,9.0,71,0.00,,,0.00,Weather View 32 v70,2013-07-04 08:50:00,
2013-07-04 03:55:00,65.6,55.9,30.12,SE,135,4.0,9.0,71,0.00,,,0.00,Weather View 32 v70,2013-07-04 08:55:00,
2013-07-04 04:00:00,65.5,55.8,30.12,SE,135,2.0,9.0,71,0.00,,,0.00,Weather View 32 v70,2013-07-04 09:00:00,
2013-07-04 04:05:00,65.5,55.8,30.12,SE,135,6.0,9.0,71,0.00,,,0.00,Weather View 32 v70,2013-07-04 09:05:00,
2013-07-04 04:10:00,65.5,55.8,30.12,ESE,112,3.0,9.0,71,0.00,,,0.00,Weather View 32 v70,2013-07-04 09:10:00,
2013-07-04 04:15:00,65.4,55.7,30.12,East,90,5.0,9.0,71,0.00,,,0.00,Weather View 32 v70,2013-07-04 09:15:00,
2013-07-04 04:20:00,65.4,56.1,30.12,ESE,112,6.0,9.0,72,0.00,,,0.00,Weather View 32 v70,2013-07-04 09:20:00,
2013-07-04 04:25:00,65.3,56.0,30.12,ESE,112,5.0,9.0,72,0.00,,,0.00,Weather View 32 v70,2013-07-04 09:25:00,
2013-07-04 04:30:00,65.2,55.9,30.12,SE,135,2.0,9.0,72,0.00,,,0.00,Weather View 32 v70,2013-07-04 09:30:00,
2013-07-04 04:35:00,64.9,56.0,30.12,SE,135,1.0,9.0,73,0.00,,,0.00,Weather View 32 v70,2013-07-04 09:35:00,
2013-07-04 04:40:00,64.9,56.0,30.12,ESE,112,4.0,9.0,73,0.00,,,0.00,Weather View 32 v70,2013-07-04 09:40:00,
2013-07-04 04:45:00,64.8,56.3,30.12,ESE,112,6.0,9.0,74,0.00,,,0.00,Weather View 32 v70,2013-07-04 09:45:00,
2013-07-04 04:50:00,64.6,56.1,30.12,SE,135,5.0,9.0,74,0.00,,,0.00,Weather View 32 v70,2013-07-04 09:50:00,
2013-07-04 04:55:00,64.5,56.4,30.12,ESE,112,4.0,9.0,75,0.00,,,0.00,Weather View 32 v70,2013-07-04 09:55:00,
2013-07-04 05:00:00,64.4,56.3,30.12,SE,135,3.0,9.0,75,0.00,,,0.00,Weather View 32 v70,2013-07-04 10:00:00,
2013-07-04 05:05:00,64.4,56.3,30.12,ESE,112,3.0,9.0,75,0.00,,,0.00,Weather View 32 v70,2013-07-04 10:05:00,
2013-07-04 05:10:00,64.3,56.2,30.12,ESE,112,4.0,9.0,75,0.00,,,0.00,Weather View 32 v70,2013-07-04 10:10:00,
2013-07-04 05:15:00,64.3,56.2,30.12,SE,135,5.0,9.0,75,0.00,,,0.00,Weather View 32 v70,2013-07-04 10:15:00,
2013-07-04 05:20:00,64.2,56.1,30.12,ESE,112,5.0,9.0,75,0.00,,,0.00,Weather View 32 v70,2013-07-04 10:20:00,
2013-07-04 05:25:00,64.3,56.2,30.12,ESE,112,4.0,9.0,75,0.00,,,0.00,Weather View 32 v70,2013-07-04 10:25:00,
2013-07-04 05:30:00,64.2,56.1,30.12,SE,135,4.0,9.0,75,0.00,,,0.00,Weather View 32 v70,2013-07-04 10:30:00,
2013-07-04 05:35:00,63.9,56.2,30.12,ESE,112,7.0,9.0,76,0.00,,,0.00,Weather View 32 v70,2013-07-04 10:35:00,
2013-07-04 05:40:00,63.8,56.1,30.12,SE,135,4.0,9.0,76,0.00,,,0.00,Weather View 32 v70,2013-07-04 10:40:00,
2013-07-04 05:45:00,63.7,56.3,30.12,SE,135,4.0,9.0,77,0.00,,,0.00,Weather View 32 v70,2013-07-04 10:45:00,
2013-07-04 05:50:00,63.6,56.2,30.12,SE,135,4.0,9.0,77,0.00,,,0.00,Weather View 32 v70,2013-07-04 10:50:00,
2013-07-04 05:55:00,63.6,56.2,30.12,East,90,6.0,9.0,77,0.00,,,0.00,Weather View 32 v70,2013-07-04 10:55:00,
2013-07-04 06:00:00,63.6,56.2,30.12,SE,135,4.0,9.0,77,0.00,,,0.00,Weather View 32 v70,2013-07-04 11:00:00,
2013-07-04 06:05:00,63.4,56.4,30.12,ESE,112,8.0,9.0,78,0.00,,,0.00,Weather View 32 v70,2013-07-04 11:05:00,
2013-07-04 06:10:00,63.4,56.4,30.12,East,90,5.0,9.0,78,0.00,,,0.00,Weather View 32 v70,2013-07-04 11:10:00,
2013-07-04 06:15:00,63.4,56.4,30.12,SE,135,3.0,9.0,78,0.00,,,0.00,Weather View 32 v70,2013-07-04 11:15:00,
2013-07-04 06:20:00,63.2,56.6,30.12,ESE,112,6.0,9.0,79,0.00,,,0.00,Weather View 32 v70,2013-07-04 11:20:00,
2013-07-04 06:25:00,63.1,56.5,30.12,ESE,112,5.0,9.0,79,0.00,,,0.00,Weather View 32 v70,2013-07-04 11:25:00,
2013-07-04 06:30:00,63.0,56.4,30.12,ESE,112,6.0,9.0,79,0.00,,,0.00,Weather View 32 v70,2013-07-04 11:30:00,
2013-07-04 06:35:00,62.9,56.3,30.12,SE,135,4.0,9.0,79,0.00,,,0.00,Weather View 32 v70,2013-07-04 11:35:00,
2013-07-04 06:40:00,62.9,56.3,30.12,SE,135,6.0,9.0,79,0.00,,,0.00,Weather View 32 v70,2013-07-04 11:40:00,
2013-07-04 06:45:00,62.9,56.3,30.12,SE,135,4.0,9.0,79,0.00,,,0.00,Weather View 32 v70,2013-07-04 11:45:00,
2013-07-04 06:50:00,62.9,56.3,30.12,SE,135,7.0,9.0,79,0.00,,,0.00,Weather View 32 v70,2013-07-04 11:50:00,
2013-07-04 06:55:00,63.1,56.5,30.12,SE,135,3.0,9.0,79,0.00,,,0.00,Weather View 32 v70,2013-07-04 11:55:00,
2013-07-04 07:00:00,63.1,56.5,30.12,ESE,112,4.0,9.0,79,0.00,,,0.00,Weather View 32 v70,2013-07-04 12:00:00,
2013-07-04 07:05:00,63.1,56.5,30.12,SE,135,2.0,9.0,79,0.00,,,0.00,Weather View 32 v70,2013-07-04 12:05:00,
2013-07-04 07:10:00,63.2,56.2,30.12,ESE,112,8.0,9.0,78,0.00,,,0.00,Weather View 32 v70,2013-07-04 12:10:00,
2013-07-04 07:15:00,63.3,56.3,30.12,SE,135,3.0,9.0,78,0.00,,,0.00,Weather View 32 v70,2013-07-04 12:15:00,
2013-07-04 07:20:00,63.4,56.4,30.12,SE,135,4.0,9.0,78,0.00,,,0.00,Weather View 32 v70,2013-07-04 12:20:00,
2013-07-04 07:25:00,63.6,56.2,30.12,SE,135,5.0,9.0,77,0.00,,,0.00,Weather View 32 v70,2013-07-04 12:25:00,
2013-07-04 07:30:00,63.7,56.3,30.12,SE,135,3.0,9.0,77,0.00,,,0.00,Weather View 32 v70,2013-07-04 12:30:00,
2013-07-04 07:35:00,63.9,56.2,30.12,SE,135,3.0,9.0,76,0.00,,,0.00,Weather View 32 v70,2013-07-04 12:35:00,
2013-07-04 07:40:00,64.1,56.4,30.12,ESE,112,7.0,9.0,76,0.00,,,0.00,Weather View 32 v70,2013-07-04 12:40:00,
2013-07-04 07:45:00,64.3,56.2,30.12,ESE,112,4.0,9.0,75,0.00,,,0.00,Weather View 32 v70,2013-07-04 12:45:00,
2013-07-04 07:50:00,64.5,56.4,30.12,ESE,112,5.0,9.0,75,0.00,,,0.00,Weather View 32 v70,2013-07-04 12:50:00,
2013-07-04 07:56:00,64.7,56.6,30.12,ESE,112,7.0,9.0,75,0.00,,,0.00,Weather View 32 v70,2013-07-04 12:56:00,
2013-07-04 08:01:00,64.9,56.8,30.12,SE,135,6.0,9.0,75,0.00,,,0.00,Weather View 32 v70,2013-07-04 13:01:00,
2013-07-04 08:06:00,65.2,56.7,30.12,ESE,112,6.0,9.0,74,0.00,,,0.00,Weather View 32 v70,2013-07-04 13:06:00,
2013-07-04 08:11:00,65.5,57.0,30.12,SE,135,6.0,9.0,74,0.00,,,0.00,Weather View 32 v70,2013-07-04 13:11:00,
2013-07-04 08:16:00,65.9,57.0,30.12,SE,135,4.0,9.0,73,0.00,,,0.00,Weather View 32 v70,2013-07-04 13:16:00,
2013-07-04 08:21:00,66.4,57.5,30.12,SE,135,6.0,10.0,73,0.00,,,0.00,Weather View 32 v70,2013-07-04 13:21:00,
2013-07-04 08:26:00,66.8,57.5,30.12,SE,135,6.0,10.0,72,0.00,,,0.00,Weather View 32 v70,2013-07-04 13:26:00,
2013-07-04 08:31:00,67.1,57.4,30.12,SE,135,4.0,10.0,71,0.00,,,0.00,Weather View 32 v70,2013-07-04 13:31:00,
2013-07-04 08:36:00,67.5,57.3,30.13,ESE,112,4.0,10.0,70,0.00,,,0.00,Weather View 32 v70,2013-07-04 13:36:00,
2013-07-04 08:41:00,67.9,56.9,30.13,SE,135,2.0,10.0,68,0.00,,,0.00,Weather View 32 v70,2013-07-04 13:41:00,
2013-07-04 08:46:00,68.3,56.9,30.13,SE,135,4.0,10.0,67,0.00,,,0.00,Weather View 32 v70,2013-07-04 13:46:00,
2013-07-04 08:51:00,68.6,56.8,30.13,ESE,112,9.0,10.0,66,0.00,,,0.00,Weather View 32 v70,2013-07-04 13:51:00,
2013-07-04 08:56:00,68.9,57.0,30.12,ESE,112,8.0,10.0,66,0.00,,,0.00,Weather View 32 v70,2013-07-04 13:56:00,
2013-07-04 09:01:00,69.2,56.9,30.12,ESE,112,7.0,12.0,65,0.00,,,0.00,Weather View 32 v70,2013-07-04 14:01:00,
2013-07-04 09:06:00,69.5,57.2,30.12,South,180,1.0,12.0,65,0.00,,,0.00,Weather View 32 v70,2013-07-04 14:06:00,
2013-07-04 09:11:00,70.2,57.8,30.13,SSE,157,2.0,12.0,65,0.00,,,0.00,Weather View 32 v70,2013-07-04 14:11:00,
2013-07-04 09:16:00,70.6,57.4,30.13,SSE,157,3.0,12.0,63,0.00,,,0.00,Weather View 32 v70,2013-07-04 14:16:00,
2013-07-04 09:21:00,70.9,57.2,30.13,ESE,112,5.0,12.0,62,0.00,,,0.00,Weather View 32 v70,2013-07-04 14:21:00,
2013-07-04 09:26:00,71.4,57.7,30.13,ESE,112,4.0,12.0,62,0.00,,,0.00,Weather View 32 v70,2013-07-04 14:26:00,
2013-07-04 09:31:00,72.0,57.3,30.13,ESE,112,4.0,12.0,60,0.00,,,0.00,Weather View 32 v70,2013-07-04 14:31:00,
2013-07-04 09:36:00,72.4,57.7,30.13,ESE,112,4.0,12.0,60,0.00,,,0.00,Weather View 32 v70,2013-07-04 14:36:00,
2013-07-04 09:41:00,72.8,57.1,30.13,SE,135,4.0,12.0,58,0.00,,,0.00,Weather View 32 v70,2013-07-04 14:41:00,
2013-07-04 09:46:00,73.3,57.6,30.13,East,90,9.0,12.0,58,0.00,,,0.00,Weather View 32 v70,2013-07-04 14:46:00,
2013-07-04 09:51:00,73.9,58.1,30.13,SW,225,1.0,12.0,58,0.00,,,0.00,Weather View 32 v70,2013-07-04 14:51:00,
2013-07-04 09:56:00,74.4,57.1,30.13,East,90,2.0,12.0,55,0.00,,,0.00,Weather View 32 v70,2013-07-04 14:56:00,
2013-07-04 10:01:00,75.2,58.9,30.13,SSE,157,0.0,11.0,57,0.00,,,0.00,Weather View 32 v70,2013-07-04 15:01:00,
2013-07-04 10:06:00,75.5,57.6,30.13,South,180,3.0,9.0,54,0.00,,,0.00,Weather View 32 v70,2013-07-04 15:06:00,
2013-07-04 10:11:00,75.8,58.4,30.13,East,90,2.0,9.0,55,0.00,,,0.00,Weather View 32 v70,2013-07-04 15:11:00,
2013-07-04 10:16:00,76.3,58.4,30.12,ESE,112,2.0,9.0,54,0.00,,,0.00,Weather View 32 v70,2013-07-04 15:16:00,
2013-07-04 10:21:00,76.8,57.2,30.13,SE,135,4.0,9.0,51,0.00,,,0.00,Weather View 32 v70,2013-07-04 15:21:00,
2013-07-04 10:26:00,76.9,58.4,30.13,South,180,0.0,9.0,53,0.00,,,0.00,Weather View 32 v70,2013-07-04 15:26:00,
2013-07-04 10:31:00,77.5,58.4,30.13,East,90,1.0,9.0,52,0.00,,,0.00,Weather View 32 v70,2013-07-04 15:31:00,
2013-07-04 10:36:00,78.1,57.3,30.13,SE,135,2.0,9.0,49,0.00,,,0.00,Weather View 32 v70,2013-07-04 15:36:00,
2013-07-04 10:41:00,78.2,57.4,30.13,SE,135,6.0,9.0,49,0.00,,,0.00,Weather View 32 v70,2013-07-04 15:41:00,
2013-07-04 10:46:00,78.3,58.6,30.13,East,90,4.0,9.0,51,0.00,,,0.00,Weather View 32 v70,2013-07-04 15:46:00,
2013-07-04 10:51:00,77.9,57.1,30.13,ESE,112,2.0,10.0,49,0.00,,,0.00,Weather View 32 v70,2013-07-04 15:51:00,
2013-07-04 10:56:00,77.9,57.7,30.13,ESE,112,4.0,10.0,50,0.00,,,0.00,Weather View 32 v70,2013-07-04 15:56:00,
2013-07-04 11:01:00,78.3,57.5,30.13,ESE,112,1.0,10.0,49,0.00,,,0.00,Weather View 32 v70,2013-07-04 16:01:00,
2013-07-04 11:06:00,78.8,58.0,30.13,SE,135,0.0,10.0,49,0.00,,,0.00,Weather View 32 v70,2013-07-04 16:06:00,
2013-07-04 11:12:00,78.8,58.5,30.13,South,180,2.0,10.0,50,0.00,,,0.00,Weather View 32 v70,2013-07-04 16:12:00,
2013-07-04 11:17:00,78.9,58.6,30.13,East,90,6.0,11.0,50,0.00,,,0.00,Weather View 32 v70,2013-07-04 16:17:00,
2013-07-04 11:22:00,78.9,58.6,30.13,ESE,112,9.0,11.0,50,0.00,,,0.00,Weather View 32 v70,2013-07-04 16:22:00,
2013-07-04 11:27:00,79.2,58.9,30.13,ESE,112,2.0,11.0,50,0.00,,,0.00,Weather View 32 v70,2013-07-04 16:27:00,
2013-07-04 11:32:00,79.3,58.4,30.13,East,90,10.0,11.0,49,0.00,,,0.00,Weather View 32 v70,2013-07-04 16:32:00,
2013-07-04 11:37:00,79.5,59.7,30.13,ESE,112,4.0,11.0,51,0.00,,,0.00,Weather View 32 v70,2013-07-04 16:37:00,
2013-07-04 11:42:00,79.9,58.4,30.13,East,90,5.0,11.0,48,0.00,,,0.00,Weather View 32 v70,2013-07-04 16:42:00,
2013-07-04 11:47:00,79.5,58.6,30.12,ESE,112,9.0,15.0,49,0.00,,,0.00,Weather View 32 v70,2013-07-04 16:47:00,
2013-07-04 11:52:00,79.7,59.9,30.12,ESE,112,2.0,15.0,51,0.00,,,0.00,Weather View 32 v70,2013-07-04 16:52:00,
2013-07-04 11:57:00,80.2,58.1,30.12,East,90,1.0,15.0,47,0.00,,,0.00,Weather View 32 v70,2013-07-04 16:57:00,
2013-07-04 12:02:00,80.6,58.4,30.12,SE,135,1.0,15.0,47,0.00,,,0.00,Weather View 32 v70,2013-07-04 17:02:00,
2013-07-04 12:07:00,81.1,58.9,30.12,SSE,157,0.0,15.0,47,0.00,,,0.00,Weather View 32 v70,2013-07-04 17:07:00,
2013-07-04 12:12:00,81.2,57.8,30.12,East,90,5.0,15.0,45,0.00,,,0.00,Weather View 32 v70,2013-07-04 17:12:00,
2013-07-04 12:17:00,81.2,58.4,30.12,SE,135,4.0,15.0,46,0.00,,,0.00,Weather View 32 v70,2013-07-04 17:17:00,
2013-07-04 12:22:00,81.6,58.7,30.12,East,90,7.0,15.0,46,0.00,,,0.00,Weather View 32 v70,2013-07-04 17:22:00,
2013-07-04 12:27:00,81.9,59.6,30.12,SSW,202,1.0,15.0,47,0.00,,,0.00,Weather View 32 v70,2013-07-04 17:27:00,
2013-07-04 12:32:00,81.8,58.9,30.12,ESE,112,2.0,15.0,46,0.00,,,0.00,Weather View 32 v70,2013-07-04 17:32:00,
2013-07-04 12:37:00,81.6,58.1,30.12,ESE,112,2.0,15.0,45,0.00,,,0.00,Weather View 32 v70,2013-07-04 17:37:00,
2013-07-04 12:42:00,81.5,59.3,30.12,South,180,2.0,15.0,47,0.00,,,0.00,Weather View 32 v70,2013-07-04 17:42:00,
2013-07-04 12:47:00,82.3,59.4,30.12,SSE,157,2.0,15.0,46,0.00,,,0.00,Weather View 32 v70,2013-07-04 17:47:00,
2013-07-04 12:52:00,82.2,59.3,30.11,SE,135,4.0,15.0,46,0.00,,,0.00,Weather View 32 v70,2013-07-04 17:52:00,
2013-07-04 12:57:00,81.8,58.9,30.11,East,90,4.0,19.0,46,0.00,,,0.00,Weather View 32 v70,2013-07-04 17:57:00,
2013-07-04 13:02:00,82.5,59.6,30.11,SW,225,3.0,19.0,46,0.00,,,0.00,Weather View 32 v70,2013-07-04 18:02:00,
2013-07-04 13:07:00,82.4,58.8,30.11,SE,135,4.0,19.0,45,0.00,,,0.00,Weather View 32 v70,2013-07-04 18:07:00,
2013-07-04 13:12:00,83.1,58.9,30.11,SSW,202,2.0,19.0,44,0.00,,,0.00,Weather View 32 v70,2013-07-04 18:12:00,
2013-07-04 13:17:00,83.5,60.5,30.11,SE,135,1.0,19.0,46,0.00,,,0.00,Weather View 32 v70,2013-07-04 18:17:00,
2013-07-04 13:22:00,83.8,59.5,30.11,ESE,112,2.0,19.0,44,0.00,,,0.00,Weather View 32 v70,2013-07-04 18:22:00,
2013-07-04 13:27:00,84.0,58.4,30.11,SE,135,6.0,19.0,42,0.00,,,0.00,Weather View 32 v70,2013-07-04 18:27:00,
2013-07-04 13:32:00,84.2,59.2,30.10,SE,135,6.0,19.0,43,0.00,,,0.00,Weather View 32 v70,2013-07-04 18:32:00,
2013-07-04 13:37:00,84.4,59.4,30.10,ESE,112,5.0,19.0,43,0.00,,,0.00,Weather View 32 v70,2013-07-04 18:37:00,
2013-07-04 13:43:00,84.7,58.3,30.10,South,180,2.0,19.0,41,0.00,,,0.00,Weather View 32 v70,2013-07-04 18:43:00,
2013-07-04 13:47:00,84.8,58.4,30.10,South,180,1.0,19.0,41,0.00,,,0.00,Weather View 32 v70,2013-07-04 18:47:00,
2013-07-04 13:52:00,84.7,58.3,30.10,East,90,3.0,19.0,41,0.00,,,0.00,Weather View 32 v70,2013-07-04 18:52:00,
2013-07-04 13:57:00,84.8,57.7,30.10,South,180,2.0,18.0,40,0.00,,,0.00,Weather View 32 v70,2013-07-04 18:57:00,
2013-07-04 14:02:00,84.8,57.0,30.10,SE,135,2.0,18.0,39,0.00,,,0.00,Weather View 32 v70,2013-07-04 19:02:00,
2013-07-04 14:08:00,84.8,57.0,30.10,East,90,5.0,18.0,39,0.00,,,0.00,Weather View 32 v70,2013-07-04 19:08:00,
2013-07-04 14:13:00,85.3,58.2,30.10,SE,135,2.0,18.0,40,0.00,,,0.00,Weather View 32 v70,2013-07-04 19:13:00,
2013-07-04 14:18:00,85.4,57.5,30.10,South,180,4.0,18.0,39,0.00,,,0.00,Weather View 32 v70,2013-07-04 19:18:00,
2013-07-04 14:23:00,85.3,57.4,30.10,SW,225,2.0,18.0,39,0.00,,,0.00,Weather View 32 v70,2013-07-04 19:23:00,
2013-07-04 14:28:00,84.8,59.1,30.10,East,90,8.0,18.0,42,0.00,,,0.00,Weather View 32 v70,2013-07-04 19:28:00,
2013-07-04 14:33:00,84.9,57.1,30.10,ESE,112,8.0,18.0,39,0.00,,,0.00,Weather View 32 v70,2013-07-04 19:33:00,
2013-07-04 14:38:00,85.2,57.4,30.09,SE,135,4.0,18.0,39,0.00,,,0.00,Weather View 32 v70,2013-07-04 19:38:00,
2013-07-04 14:43:00,84.8,57.7,30.10,SW,225,3.0,18.0,40,0.00,,,0.00,Weather View 32 v70,2013-07-04 19:43:00,
2013-07-04 14:48:00,84.8,58.4,30.10,SSE,157,1.0,18.0,41,0.00,,,0.00,Weather View 32 v70,2013-07-04 19:48:00,
2013-07-04 14:53:00,85.3,58.2,30.10,SE,135,5.0,18.0,40,0.00,,,0.00,Weather View 32 v70,2013-07-04 19:53:00,
2013-07-04 14:58:00,85.6,57.7,30.10,SW,225,1.0,16.0,39,0.00,,,0.00,Weather View 32 v70,2013-07-04 19:58:00,
2013-07-04 15:03:00,85.4,58.9,30.10,ESE,112,7.0,16.0,41,0.00,,,0.00,Weather View 32 v70,2013-07-04 20:03:00,
2013-07-04 15:08:00,85.2,58.8,30.09,ESE,112,14.0,21.0,41,0.00,,,0.00,Weather View 32 v70,2013-07-04 20:08:00,
2013-07-04 15:13:00,85.1,58.7,30.09,SE,135,6.0,21.0,41,0.00,,,0.00,Weather View 32 v70,2013-07-04 20:13:00,
2013-07-04 15:18:00,85.2,58.8,30.09,SE,135,2.0,21.0,41,0.00,,,0.00,Weather View 32 v70,2013-07-04 20:18:00,
2013-07-04 15:23:00,85.5,59.0,30.09,SSW,202,4.0,21.0,41,0.00,,,0.00,Weather View 32 v70,2013-07-04 20:23:00,
2013-07-04 15:28:00,85.6,59.1,30.09,SE,135,10.0,21.0,41,0.00,,,0.00,Weather View 32 v70,2013-07-04 20:28:00,
2013-07-04 15:33:00,85.7,58.5,30.09,SW,225,2.0,21.0,40,0.00,,,0.00,Weather View 32 v70,2013-07-04 20:33:00,
2013-07-04 15:38:00,86.2,59.0,30.09,SE,135,2.0,21.0,40,0.00,,,0.00,Weather View 32 v70,2013-07-04 20:38:00,
2013-07-04 15:43:00,85.9,58.7,30.09,SE,135,3.0,21.0,40,0.00,,,0.00,Weather View 32 v70,2013-07-04 20:43:00,
2013-07-04 15:48:00,86.5,59.9,30.09,SE,135,2.0,21.0,41,0.00,,,0.00,Weather View 32 v70,2013-07-04 20:48:00,
2013-07-04 15:53:00,86.3,58.3,30.09,ESE,112,4.0,21.0,39,0.00,,,0.00,Weather View 32 v70,2013-07-04 20:53:00,
2013-07-04 15:58:00,85.8,57.9,30.09,South,180,1.0,21.0,39,0.00,,,0.00,Weather View 32 v70,2013-07-04 20:58:00,
2013-07-04 16:03:00,85.7,57.1,30.10,ESE,112,10.0,21.0,38,0.00,,,0.00,Weather View 32 v70,2013-07-04 21:03:00,
2013-07-04 16:08:00,85.9,58.0,30.10,ESE,112,6.0,17.0,39,0.00,,,0.00,Weather View 32 v70,2013-07-04 21:08:00,
2013-07-04 16:13:00,86.4,59.1,30.09,SE,135,1.0,17.0,40,0.00,,,0.00,Weather View 32 v70,2013-07-04 21:13:00,
2013-07-04 16:18:00,86.2,57.5,30.09,SW,225,4.0,17.0,38,0.00,,,0.00,Weather View 32 v70,2013-07-04 21:18:00,
2013-07-04 16:23:00,86.2,59.0,30.10,East,90,2.0,17.0,40,0.00,,,0.00,Weather View 32 v70,2013-07-04 21:23:00,
2013-07-04 16:28:00,86.5,57.8,30.09,ESE,112,7.0,17.0,38,0.00,,,0.00,Weather View 32 v70,2013-07-04 21:28:00,
2013-07-04 16:33:00,86.1,57.4,30.09,SE,135,2.0,24.0,38,0.00,,,0.00,Weather View 32 v70,2013-07-04 21:33:00,
2013-07-04 16:38:00,85.9,57.3,30.09,SE,135,5.0,24.0,38,0.00,,,0.00,Weather View 32 v70,2013-07-04 21:38:00,
2013-07-04 16:44:00,85.8,57.2,30.09,ESE,112,5.0,24.0,38,0.00,,,0.00,Weather View 32 v70,2013-07-04 21:44:00,
2013-07-04 16:49:00,85.9,57.3,30.09,ESE,112,6.0,24.0,38,0.00,,,0.00,Weather View 32 v70,2013-07-04 21:49:00,
2013-07-04 16:54:00,85.9,56.5,30.08,SE,135,7.0,24.0,37,0.00,,,0.00,Weather View 32 v70,2013-07-04 21:54:00,
2013-07-04 16:59:00,85.7,57.1,30.08,SE,135,3.0,24.0,38,0.00,,,0.00,Weather View 32 v70,2013-07-04 21:59:00,
2013-07-04 17:04:00,86.0,56.6,30.08,SE,135,6.0,24.0,37,0.00,,,0.00,Weather View 32 v70,2013-07-04 22:04:00,
2013-07-04 17:09:00,85.8,57.2,30.08,South,180,2.0,24.0,38,0.00,,,0.00,Weather View 32 v70,2013-07-04 22:09:00,
2013-07-04 17:14:00,85.9,57.3,30.08,ESE,112,6.0,24.0,38,0.00,,,0.00,Weather View 32 v70,2013-07-04 22:14:00,
2013-07-04 17:19:00,85.8,56.4,30.08,SSW,202,4.0,24.0,37,0.00,,,0.00,Weather View 32 v70,2013-07-04 22:19:00,
2013-07-04 17:24:00,85.6,57.0,30.08,SE,135,8.0,24.0,38,0.00,,,0.00,Weather View 32 v70,2013-07-04 22:24:00,
2013-07-04 17:29:00,85.5,56.9,30.08,SE,135,4.0,24.0,38,0.00,,,0.00,Weather View 32 v70,2013-07-04 22:29:00,
2013-07-04 17:34:00,85.8,57.9,30.08,East,90,2.0,22.0,39,0.00,,,0.00,Weather View 32 v70,2013-07-04 22:34:00,
2013-07-04 17:39:00,86.1,58.2,30.08,SE,135,7.0,22.0,39,0.00,,,0.00,Weather View 32 v70,2013-07-04 22:39:00,
2013-07-04 17:44:00,85.9,57.3,30.08,SE,135,2.0,22.0,38,0.00,,,0.00,Weather View 32 v70,2013-07-04 22:44:00,
2013-07-04 17:49:00,85.8,57.2,30.08,SE,135,3.0,22.0,38,0.00,,,0.00,Weather View 32 v70,2013-07-04 22:49:00,
2013-07-04 17:54:00,85.8,57.2,30.08,ESE,112,1.0,22.0,38,0.00,,,0.00,Weather View 32 v70,2013-07-04 22:54:00,
2013-07-04 17:59:00,86.4,58.4,30.08,East,90,2.0,22.0,39,0.00,,,0.00,Weather View 32 v70,2013-07-04 22:59:00,
2013-07-04 18:04:00,86.1,57.4,30.08,SE,135,6.0,22.0,38,0.00,,,0.00,Weather View 32 v70,2013-07-04 23:04:00,
2013-07-04 18:09:00,85.6,57.0,30.08,SE,135,10.0,22.0,38,0.00,,,0.00,Weather View 32 v70,2013-07-04 23:09:00,
2013-07-04 18:14:00,85.6,56.2,30.07,South,180,4.0,22.0,37,0.00,,,0.00,Weather View 32 v70,2013-07-04 23:14:00,
2013-07-04 18:19:00,85.7,56.3,30.07,SE,135,4.0,22.0,37,0.00,,,0.00,Weather View 32 v70,2013-07-04 23:19:00,
2013-07-04 18:24:00,85.3,56.7,30.07,SSW,202,3.0,17.0,38,0.00,,,0.00,Weather View 32 v70,2013-07-04 23:24:00,
2013-07-04 18:29:00,85.2,56.6,30.07,SE,135,4.0,17.0,38,0.00,,,0.00,Weather View 32 v70,2013-07-04 23:29:00,
2013-07-04 18:34:00,85.1,56.5,30.07,SE,135,7.0,17.0,38,0.00,,,0.00,Weather View 32 v70,2013-07-04 23:34:00,
2013-07-04 18:39:00,84.9,56.4,30.06,SE,135,3.0,17.0,38,0.00,,,0.00,Weather View 32 v70,2013-07-04 23:39:00,
2013-07-04 18:44:00,85.1,57.3,30.06,SE,135,4.0,17.0,39,0.00,,,0.00,Weather View 32 v70,2013-07-04 23:44:00,
2013-07-04 18:49:00,84.9,57.8,30.06,SE,135,3.0,17.0,40,0.00,,,0.00,Weather View 32 v70,2013-07-04 23:49:00,
2013-07-04 18:54:00,84.7,57.6,30.06,SE,135,9.0,16.0,40,0.00,,,0.00,Weather View 32 v70,2013-07-04 23:54:00,
2013-07-04 18:59:00,84.3,58.0,30.06,SE,135,8.0,16.0,41,0.00,,,0.00,Weather View 32 v70,2013-07-04 23:59:00,
2013-07-04 19:04:00,84.1,57.1,30.06,SE,135,6.0,16.0,40,0.00,,,0.00,Weather View 32 v70,2013-07-05 00:04:00,
2013-07-04 19:09:00,84.0,57.0,30.06,SE,135,7.0,16.0,40,0.00,,,0.00,Weather View 32 v70,2013-07-05 00:09:00,
2013-07-04 19:15:00,83.7,58.1,30.06,SE,135,9.0,16.0,42,0.00,,,0.00,Weather View 32 v70,2013-07-05 00:15:00,
2013-07-04 19:20:00,83.5,57.9,30.06,SE,135,11.0,16.0,42,0.00,,,0.00,Weather View 32 v70,2013-07-05 00:20:00,
2013-07-04 19:25:00,83.2,58.3,30.06,SE,135,7.0,16.0,43,0.00,,,0.00,Weather View 32 v70,2013-07-05 00:25:00,
2013-07-04 19:30:00,82.9,58.0,30.06,SE,135,6.0,16.0,43,0.00,,,0.00,Weather View 32 v70,2013-07-05 00:30:00,
2013-07-04 19:35:00,82.8,58.6,30.06,SE,135,6.0,16.0,44,0.00,,,0.00,Weather View 32 v70,2013-07-05 00:35:00,
2013-07-04 19:40:00,82.4,58.2,30.06,ESE,112,7.0,16.0,44,0.00,,,0.00,Weather View 32 v70,2013-07-05 00:40:00,
2013-07-04 19:45:00,82.1,57.9,30.05,SE,135,6.0,16.0,44,0.00,,,0.00,Weather View 32 v70,2013-07-05 00:45:00,
2013-07-04 19:50:00,81.9,57.8,30.06,SE,135,5.0,16.0,44,0.00,,,0.00,Weather View 32 v70,2013-07-05 00:50:00,
2013-07-04 19:55:00,81.7,58.2,30.06,SE,135,6.0,16.0,45,0.00,,,0.00,Weather View 32 v70,2013-07-05 00:55:00,
2013-07-04 20:00:00,81.5,57.4,30.05,SE,135,6.0,16.0,44,0.00,,,0.00,Weather View 32 v70,2013-07-05 01:00:00,
2013-07-04 20:05:00,81.3,57.9,30.05,ESE,112,7.0,16.0,45,0.00,,,0.00,Weather View 32 v70,2013-07-05 01:05:00,
2013-07-04 20:10:00,81.1,57.7,30.05,ESE,112,8.0,16.0,45,0.00,,,0.00,Weather View 32 v70,2013-07-05 01:10:00,
2013-07-04 20:15:00,80.9,57.5,30.05,ESE,112,7.0,16.0,45,0.00,,,0.00,Weather View 32 v70,2013-07-05 01:15:00,
2013-07-04 20:20:00,80.7,57.3,30.05,SE,135,6.0,16.0,45,0.00,,,0.00,Weather View 32 v70,2013-07-05 01:20:00,
2013-07-04 20:25:00,80.5,57.7,30.05,East,90,7.0,16.0,46,0.00,,,0.00,Weather View 32 v70,2013-07-05 01:25:00,
2013-07-04 20:30:00,80.3,57.0,30.05,East,90,8.0,16.0,45,0.00,,,0.00,Weather View 32 v70,2013-07-05 01:30:00,
2013-07-04 20:35:00,80.0,56.7,30.05,ESE,112,7.0,16.0,45,0.00,,,0.00,Weather View 32 v70,2013-07-05 01:35:00,
2013-07-04 20:40:00,79.8,56.5,30.05,SE,135,2.0,16.0,45,0.00,,,0.00,Weather View 32 v70,2013-07-05 01:40:00,
2013-07-04 20:45:00,79.6,56.3,30.05,South,180,7.0,15.0,45,0.00,,,0.00,Weather View 32 v70,2013-07-05 01:45:00,
2013-07-04 20:50:00,79.3,56.7,30.05,ESE,112,11.0,15.0,46,0.00,,,0.00,Weather View 32 v70,2013-07-05 01:50:00,
2013-07-04 20:55:00,79.2,56.6,30.05,SE,135,7.0,15.0,46,0.00,,,0.00,Weather View 32 v70,2013-07-05 01:55:00,
2013-07-04 21:00:00,78.9,56.9,30.04,ESE,112,6.0,14.0,47,0.00,,,0.00,Weather View 32 v70,2013-07-05 02:00:00,
2013-07-04 21:05:00,78.6,57.2,30.04,SE,135,7.0,14.0,48,0.00,,,0.00,Weather View 32 v70,2013-07-05 02:05:00,
2013-07-04 21:10:00,78.5,57.1,30.05,SE,135,7.0,14.0,48,0.00,,,0.00,Weather View 32 v70,2013-07-05 02:10:00,
2013-07-04 21:15:00,78.3,56.3,30.04,ESE,112,6.0,14.0,47,0.00,,,0.00,Weather View 32 v70,2013-07-05 02:15:00,
2013-07-04 21:20:00,78.3,55.7,30.05,SE,135,3.0,15.0,46,0.00,,,0.00,Weather View 32 v70,2013-07-05 02:20:00,
2013-07-04 21:25:00,78.0,56.1,30.05,SE,135,6.0,15.0,47,0.00,,,0.00,Weather View 32 v70,2013-07-05 02:25:00,
2013-07-04 21:30:00,77.9,56.0,30.05,ESE,112,5.0,15.0,47,0.00,,,0.00,Weather View 32 v70,2013-07-05 02:30:00,
2013-07-04 21:35:00,77.8,55.9,30.05,ESE,112,9.0,15.0,47,0.00,,,0.00,Weather View 32 v70,2013-07-05 02:35:00,
2013-07-04 21:40:00,77.7,55.8,30.05,SE,135,4.0,15.0,47,0.00,,,0.00,Weather View 32 v70,2013-07-05 02:40:00,
2013-07-04 21:46:00,77.5,55.6,30.05,SE,135,7.0,15.0,47,0.00,,,0.00,Weather View 32 v70,2013-07-05 02:46:00,
2013-07-04 21:51:00,77.4,54.9,30.05,SSE,157,4.0,15.0,46,0.00,,,0.00,Weather View 32 v70,2013-07-05 02:51:00,
2013-07-04 21:56:00,77.3,55.4,30.05,ESE,112,7.0,15.0,47,0.00,,,0.00,Weather View 32 v70,2013-07-05 02:56:00,
2013-07-04 22:01:00,77.2,55.3,30.05,East,90,10.0,15.0,47,0.00,,,0.00,Weather View 32 v70,2013-07-05 03:01:00,
2013-07-04 22:06:00,77.1,55.3,30.06,SE,135,4.0,15.0,47,0.00,,,0.00,Weather View 32 v70,2013-07-05 03:06:00,
2013-07-04 22:11:00,76.9,54.5,30.06,SE,135,6.0,15.0,46,0.00,,,0.00,Weather View 32 v70,2013-07-05 03:11:00,
2013-07-04 22:16:00,76.9,54.5,30.06,ESE,112,9.0,15.0,46,0.00,,,0.00,Weather View 32 v70,2013-07-05 03:16:00,
2013-07-04 22:21:00,76.8,55.0,30.06,SE,135,6.0,15.0,47,0.00,,,0.00,Weather View 32 v70,2013-07-05 03:21:00,
2013-07-04 22:26:00,76.7,54.9,30.06,SE,135,5.0,15.0,47,0.00,,,0.00,Weather View 32 v70,2013-07-05 03:26:00,
2013-07-04 22:31:00,76.5,55.3,30.06,SE,135,3.0,15.0,48,0.00,,,0.00,Weather View 32 v70,2013-07-05 03:31:00,
2013-07-04 22:36:00,76.3,55.7,30.06,ESE,112,5.0,15.0,49,0.00,,,0.00,Weather View 32 v70,2013-07-05 03:36:00,
2013-07-04 22:41:00,76.1,55.5,30.06,ESE,112,7.0,15.0,49,0.00,,,0.00,Weather View 32 v70,2013-07-05 03:41:00,
2013-07-04 22:46:00,75.9,55.9,30.06,ESE,112,11.0,15.0,50,0.00,,,0.00,Weather View 32 v70,2013-07-05 03:46:00,
2013-07-04 22:51:00,75.7,55.7,30.06,SE,135,4.0,15.0,50,0.00,,,0.00,Weather View 32 v70,2013-07-05 03:51:00,
2013-07-04 22:56:00,75.6,56.1,30.06,SE,135,7.0,15.0,51,0.00,,,0.00,Weather View 32 v70,2013-07-05 03:56:00,
2013-07-04 23:01:00,75.3,55.9,30.06,ESE,112,9.0,15.0,51,0.00,,,0.00,Weather View 32 v70,2013-07-05 04:01:00,
2013-07-04 23:06:00,75.2,55.8,30.06,ESE,112,8.0,14.0,51,0.00,,,0.00,Weather View 32 v70,2013-07-05 04:06:00,
2013-07-04 23:11:00,74.9,56.0,30.05,SE,135,4.0,14.0,52,0.00,,,0.00,Weather View 32 v70,2013-07-05 04:11:00,
2013-07-04 23:16:00,74.7,56.4,30.05,SE,135,6.0,14.0,53,0.00,,,0.00,Weather View 32 v70,2013-07-05 04:16:00,
2013-07-04 23:21:00,74.5,56.7,30.05,SE,135,6.0,14.0,54,0.00,,,0.00,Weather View 32 v70,2013-07-05 04:21:00,
2013-07-04 23:26:00,74.2,56.9,30.05,ESE,112,6.0,16.0,55,0.00,,,0.00,Weather View 32 v70,2013-07-05 04:26:00,
2013-07-04 23:31:00,74.1,57.3,30.05,SE,135,8.0,16.0,56,0.00,,,0.00,Weather View 32 v70,2013-07-05 04:31:00,
2013-07-04 23:36:00,73.9,57.2,30.05,ESE,112,7.0,16.0,56,0.00,,,0.00,Weather View 32 v70,2013-07-05 04:36:00,
2013-07-04 23:41:00,73.7,57.5,30.05,ESE,112,7.0,16.0,57,0.00,,,0.00,Weather View 32 v70,2013-07-05 04:41:00,
2013-07-04 23:46:00,73.5,57.8,30.06,ESE,112,6.0,16.0,58,0.00,,,0.00,Weather View 32 v70,2013-07-05 04:46:00,
2013-07-04 23:51:00,73.4,57.7,30.06,SE,135,7.0,16.0,58,0.00,,,0.00,Weather View 32 v70,2013-07-05 04:51:00,
2013-07-04 23:56:00,73.2,58.0,30.06,SE,135,9.0,16.0,59,0.00,,,0.00,Weather View 32 v70,2013-07-05 04:56:00,